Location: Estes Park
(40.3770°N, 105.5210°W)
Time: 21:05:26
(UTC-06:00)

Vanguard 1 Rocket - All Passes

Search period start: 17 July 2018 00:00
Search period end: 27 July 2018 00:00
Orbit: 652 x 4225 km, 34.3° (Epoch: 16 July)

Date Brightness Start Highest point End Pass type
(mag) Time Alt. Az. Time Alt. Az. Time Alt. Az.
17 Jul - 05:48:29 10° SSE 06:00:11 16° SE 06:09:57 10° ESE daylight
17 Jul - 08:09:40 10° SSW 08:29:34 39° SSE 08:41:39 10° E daylight
17 Jul - 10:40:10 10° WSW 10:57:57 60° S 11:07:00 10° E daylight
17 Jul - 13:12:34 10° W 13:24:26 56° SSW 13:30:43 10° ESE daylight
17 Jul - 15:43:32 10° W 15:48:35 20° SW 15:52:20 10° S daylight
18 Jul - 06:57:04 10° SSW 07:16:15 30° SSE 07:29:28 10° E daylight
18 Jul - 09:25:09 10° SW 09:45:26 54° SSE 09:56:17 10° E daylight
18 Jul - 11:57:44 10° W 12:12:59 64° S 12:20:37 10° ESE daylight
18 Jul - 14:29:36 10° W 14:38:14 36° SSW 14:43:27 10° SE daylight
19 Jul - 05:46:27 10° S 06:02:47 22° SE 06:15:40 10° E daylight
19 Jul - 08:10:46 10° SW 08:32:21 46° SSE 08:45:08 10° E daylight
19 Jul - 10:42:25 10° WSW 11:00:56 64° S 11:10:15 10° E daylight
19 Jul - 13:15:18 10° W 13:27:25 52° SSW 13:33:50 10° SE daylight
19 Jul - 15:47:18 10° WSW 15:51:14 15° SW 15:54:21 10° S daylight
20 Jul - 04:40:05 10° SSE 04:49:19 13° SE 04:57:44 10° ESE visible
20 Jul - 06:57:30 10° SSW 07:18:52 37° SSE 07:33:15 10° E daylight
20 Jul - 09:27:03 10° WSW 09:48:18 60° SSE 09:59:34 10° E daylight
20 Jul - 12:00:19 10° W 12:15:59 63° S 12:23:48 10° ESE daylight
20 Jul - 14:32:37 10° W 14:40:59 30° SW 14:46:11 10° SSE daylight
21 Jul - 05:45:51 10° S 06:05:14 28° SE 06:20:11 10° E daylight
21 Jul - 08:12:13 10° SW 08:35:05 53° SSE 08:48:28 10° E daylight
21 Jul - 10:44:47 10° WSW 11:03:54 67° S 11:13:28 10° E daylight
21 Jul - 13:18:03 10° W 13:30:17 47° SSW 13:36:50 10° SE daylight
21 Jul - 15:52:18 10° WSW 15:53:44 11° SW 15:55:03 10° SW daylight
22 Jul - 04:36:45 10° S 04:51:40 19° SE 05:04:46 10° E visible
22 Jul - 06:58:26 10° SW 07:21:26 45° SSE 07:36:44 10° E daylight
22 Jul - 09:29:08 10° WSW 09:51:09 65° S 10:02:47 10° E daylight
22 Jul - 12:02:55 10° W 12:18:55 61° SSW 12:26:57 10° ESE daylight
22 Jul - 14:35:47 10° W 14:43:36 24° SW 14:48:42 10° SSE daylight
23 Jul - 05:46:04 10° SSW 06:07:36 35° SE 06:24:04 10° E daylight
23 Jul - 08:13:57 10° SW 08:37:47 60° SSE 08:51:41 10° E daylight
23 Jul - 10:47:14 10° W 11:06:49 68° S 11:16:38 10° ESE daylight
23 Jul - 13:20:50 10° W 13:33:02 41° SSW 13:39:44 10° SE daylight
24 Jul - 04:35:40 10° S 04:53:53 25° SE 05:09:45 10° E visible
24 Jul - 06:59:45 10° SW 07:23:56 51° SSE 07:40:02 10° E daylight
24 Jul - 09:31:22 10° WSW 09:53:59 69° S 10:05:58 10° E daylight
24 Jul - 12:05:31 10° W 12:21:46 57° SSW 12:30:01 10° SE daylight
24 Jul - 14:39:12 10° W 14:46:04 19° SW 14:50:52 10° S daylight
25 Jul - 03:28:51 10° SSE 03:40:32 15° SE 03:51:47 10° ESE visible
25 Jul - 05:46:52 10° SSW 06:09:53 42° SSE 06:27:35 10° E daylight
25 Jul - 08:15:55 10° WSW 08:40:29 65° SSE 08:54:51 10° E daylight
25 Jul - 10:49:43 10° W 11:09:42 67° S 11:19:47 10° ESE daylight
25 Jul - 13:23:41 10° W 13:35:39 35° SW 13:42:27 10° SSE daylight
26 Jul - 04:35:39 10° S 04:56:00 31° SE 05:13:52 10° E visible
26 Jul - 07:01:23 10° SW 07:26:26 58° SSE 07:43:14 10° E daylight
26 Jul - 09:33:44 10° WSW 09:56:48 71° S 10:09:07 10° E daylight
26 Jul - 12:08:08 10° W 12:24:31 52° SSW 12:32:59 10° SE daylight
26 Jul - 14:43:08 10° W 14:48:25 15° SW 14:52:27 10° SSW daylight
